{"data":{"norad_id":69743,"epoch":"2026-09-19T08:34:13.071936Z","epoch_age_seconds":120375,"freshness":"FRESH","line1":"1 69743U 26150E   26262.35709574  .00011845  00000+0  36855-3 0  9999","line2":"2 69743  97.2846 101.3441 0001901  92.2166 267.9294 15.33454235 13567","mean_motion":15.33454235,"eccentricity":0.0001901,"inclination_deg":97.2846,"raan_deg":101.3441,"arg_perigee_deg":92.2166,"mean_anomaly_deg":267.9294,"bstar":0.00036855,"rev_number":1356,"period_min":93.905639120688,"perigee_km":464.21471937556,"apogee_km":466.81667613125,"semimajor_km":6843.6526977534,"source":"CELESTRAK","updated_at":"2026-09-20T09:00:44.286775Z"}}